TimeEDT,TemperatureF,Dew PointF,Humidity,Sea Level PressureIn,VisibilityMPH,Wind Direction,Wind SpeedMPH,Gust SpeedMPH,PrecipitationIn,Events,Conditions,WindDirDegrees,DateUTC
7:00 AM,50.0,50.0,100,29.93,6.0,Calm,Calm,-,N/A,,Mostly Cloudy,0,2012-10-05 11:00:00
8:00 AM,51.8,51.8,100,29.92,5.0,East,2.3,-,N/A,,Mostly Cloudy,90,2012-10-05 12:00:00
8:09 AM,-9999,-9999,N/A,-9999,5.0,ENE,4.6,-,N/A,Rain,Light Rain Showers,60,2012-10-05 12:09:00
8:40 AM,-9999,-9999,N/A,-9999,5.0,ENE,5.8,-,N/A,,Mostly Cloudy,60,2012-10-05 12:40:00
9:00 AM,55.4,55.4,100,29.91,5.0,ENE,2.3,-,N/A,,Overcast,70,2012-10-05 13:00:00
9:41 AM,-9999,-9999,N/A,-9999,2.0,SSE,2.3,-,N/A,Rain,Light Rain Showers,150,2012-10-05 13:41:00
10:00 AM,57.2,55.4,94,29.90,3.0,ESE,4.6,-,N/A,Rain,Light Rain Showers,110,2012-10-05 14:00:00
10:22 AM,-9999,-9999,N/A,-9999,4.0,East,4.6,-,N/A,,Overcast,100,2012-10-05 14:22:00
10:38 AM,-9999,-9999,N/A,-9999,4.0,ENE,3.5,-,N/A,,Overcast,70,2012-10-05 14:38:00
11:00 AM,59.0,57.2,94,29.90,4.0,SE,2.3,-,N/A,,Overcast,130,2012-10-05 15:00:00
11:12 AM,-9999,-9999,N/A,-9999,4.0,East,2.3,-,N/A,,Overcast,80,2012-10-05 15:12:00
12:00 PM,60.8,59.0,94,29.88,4.0,NE,2.3,-,N/A,,Overcast,40,2012-10-05 16:00:00
12:15 PM,-9999,-9999,N/A,-9999,7.0,ENE,2.3,-,N/A,,Overcast,60,2012-10-05 16:15:00
1:00 PM,64.4,60.8,88,29.86,7.0,Calm,Calm,-,N/A,,Mostly Cloudy,0,2012-10-05 17:00:00
2:00 PM,68.0,59.0,73,29.83,10.0,West,9.2,-,N/A,,Mostly Cloudy,280,2012-10-05 18:00:00
3:00 PM,68.0,55.4,64,29.83,15.0,West,12.7,18.4,N/A,,Mostly Cloudy,260,2012-10-05 19:00:00
4:00 PM,71.6,53.6,53,29.82,15.0,West,13.8,20.7,N/A,,Mostly Cloudy,260,2012-10-05 20:00:00
5:00 PM,69.8,51.8,53,29.81,15.0,West,12.7,21.9,N/A,,Mostly Cloudy,260,2012-10-05 21:00:00
6:00 PM,66.2,46.4,49,29.81,15.0,WSW,12.7,-,N/A,,Overcast,250,2012-10-05 22:00:00
7:00 PM,60.8,46.4,59,29.82,15.0,West,4.6,-,N/A,,Mostly Cloudy,280,2012-10-05 23:00:00
8:00 PM,59.0,46.4,63,29.83,15.0,West,5.8,-,N/A,,Mostly Cloudy,260,2012-10-06 00:00:00
9:00 PM,51.8,44.6,76,29.83,15.0,West,5.8,-,N/A,,Scattered Clouds,270,2012-10-06 01:00:00